SCP
0 0 0 0 0 0 0 0 0 0 0 0 0 0 0 0 0 0 0 0 0 0 0 0 0 0 0 0 0 0 0 0 0 0 0 0 0 0 0 0 0 0 0
0 0 0 0 0 0 0 0 0 0 0 0 0 0 0 0 0 0 0 0 0 0 0 0 0 0 0 0 0 0 0 0 0 0 0 0 0 0 0 0 0 0 0
0 0 0 0 0 0 0 0 0 0 0 0 0 0 0 0 0 0 0 0 0 0 0 0 0 0 0 0 0 0 0 0 0 0 0 0 0 0 0 0 0 0 0
0 0 0 0 0 0 0 0 0 0 0 0 0 0 0 0 0 0 0 0 0 0 0 0 0 0 0 0 0 0 0 0 0 0 0 0 0 0 0 0 0 0 0
0 0 0 0 0 0 0 0 0 0 0 0 0 0 0 0 0 0 0 0 0 0 0 0 0 0 0 0 0 0 0 0 0 0 0 0 0 0 0 0 0 0 0
0 0 0 0 0 0 0 0 0 0 0 0 0 0 0 0 0 0 0 0 0 0 0 0 0 0 0 0 0 0 0 0 0 0 0 0 0 0 0 0 0 0 0
0 0 0 0 0 0 0 0 0 0 0 0 0 0 0 0 0 0 0 0 0 0 0 0 0 0 0 0 0 0 0 0 0 0 0 0 0 0 0 0 0 0 0
0 0 0 0 0 0 0 0 0 0 0 0 0 0 0 0 0 0 0 0 0 0 0 0 0 0 0 0 0 0 0 0 0 0 0 0 0 0 0 0 0 0 0
0 0 0 0 0 0 0 0 0 0 0 0 0 0 0 0 0 0 0 0 0 0 0 0 0 0 0 0 0 0 0 0 0 0 0 0 0 0 0 0 0 0 0
0 0 0 0 0 0 0 0 0 0 0 0 0 0 0 0 0 0 0 0 0 0 0 0 0 0 0 0 0 0 0 0 0 0 0 0 0 0 0 0 0 0 0
0 0 0 0 0 0 0 0 0 0 0 0 0 0 0 0 0 0 0 0 0 0 0 0 0 0 0 0 0 0 0 0 0 0 0 0 0 0 0 0 0 0 0
0 0 0 0 0 0 0 0 0 0 0 0 0 0 0 0 0 0 0 0 0 0 0 0 0 0 0 0 0 0 0 0 0 0 0 0 0 0 0 0 0 0 0
0 0 0 0 0 0 0 0 0 0 0 0 0 0 0 0 0 0 0 0 0 0 0 0 0 0 0 0 0 0 0 0 0 0 0 0 0 0 0 0 0 0 0
0 0 0 0 0 0 0 0 0 0 0 0 0 0 0 0 0 0 0 0 0 0 0 0 0 0 0 0 0 0 0 0 0 0 0 0 0 0 0 0 0 0 0
0 0 0 0 0 0 0 0 0 0 0 0 0 0 0 0 0 0 0 0 0 0 0 0 0 0 0 0 0 0 0 0 0 0 0 0 0 0 0 0 0 0 0
0 0 0 0 0 0 0 0 0 0 0 0 0 0 0 0 0 0 0 0 0 0 0 0 0 0 0 0 0 0 0 0 0 0 0 0 0 0 0 0 0 0 0
0 0 0 0 0 0 0 0 0 0 0 0 0 0 0 0 0 0 0 0 0 0 0 0 0 0 0 0 0 0 0 0 0 0 0 0 0 0 0 0 0 0 0
0 0 0 0 0 0 0 0 0 0 0 0 0 0 0 0 0 0 0 0 0 0 0 0 0 0 0 0 0 0 0 0 0 0 0 0 0 0 0 0 0 0 0
0 0 0 0 0 0 0 0 0 0 0 0 0 0 0 0 0 0 0 0 0 0 0 0 0 0 0 0 0 0 0 0 0 0 0 0 0 0 0 0 0 0 0
0 0 0 0 0 0 0 0 0 0 0 0 0 0 0 0 0 0 0 0 0 0 0 0 0 0 0 0 0 0 0 0 0 0 0 0 0 0 0 0 0 0 0
0 0 0 0 0 0 0 0 0 0 0 0 0 0 0 0 0 0 0 0 0 0 0 0 0 0 0 0 0 0 0 0 0 0 0 0 0 0 0 0 0 0 0
0 0 0 0 0 0 0 0 0 0 0 0 0 0 0 0 0 0 0 0 0 0 0 0 0 0 0 0 0 0 0 0 0 0 0 0 0 0 0 0 0 0 0
0 0 0 0 0 0 0 0 0 0 0 0 0 0 0 0 0 0 0 0 0 0 0 0 0 0 0 0 0 0 0 0 0 0 0 0 0 0 0 0 0 0 0
0 0 0 0 0 0 0 0 0 0 0 0 0 0 0 0 0 0 0 0 0 0 0 0 0 0 0 0 0 0 0 0 0 0 0 0 0 0 0 0 0 0 0
0 0 0 0 0 0 0 0 0 0 0 0 0 0 0 0 0 0 0 0 0 0 0 0 0 0 0 0 0 0 0 0 0 0 0 0 0 0 0 0 0 0 0
0 0 0 0 0 0 0 0 0 0 0 0 0 0 0 0 0 0 0 0 0 0 0 0 0 0 0 0 0 0 0 0 0 0 0 0 0 0 0 0 0 0 0
Wind_Speed
2 2 2 2 2 1 2 1 2 2 2 2 2 2 3 4 4 3 2 5 6 6 7 6 6 7 7 6 6 6 5 5 4 4 4 4 4 4 4 4 4 5 5
2 2 2 2 2 2 2 2 2 2 2 2 2 3 3 3 4 4 3 4 7 7 7 7 7 7 8 8 7 7 6 6 5 5 4 4 4 4 5 4 5 5 5
2 2 2 2 2 2 2 2 2 1 1 1 2 3 3 3 4 5 4 4 4 6 8 8 8 8 8 9 8 7 6 6 6 6 5 5 5 4 5 5 5 6 6
2 2 2 2 2 2 2 2 2 1 1 2 2 2 2 2 4 5 5 4 4 4 6 8 9 9 9 9 8 8 7 7 7 7 6 6 6 6 6 6 6 6 6
2 2 3 2 3 2 2 2 2 2 2 2 2 2 2 3 4 4 5 5 5 5 4 6 8 9 9 10 9 9 8 8 7 7 7 7 7 7 7 7 7 7 7
2 2 2 2 2 2 2 2 2 2 2 2 2 3 3 3 3 4 4 4 5 5 5 5 5 6 8 10 9 9 9 9 8 8 8 8 8 7 8 8 8 7 8
3 2 2 2 2 2 3 2 2 2 2 1 0 2 3 3 3 3 3 3 4 5 5 5 4 4 4 8 9 10 10 10 10 9 8 9 8 8 8 8 8 8 8
3 3 3 3 3 2 2 2 2 1 2 2 2 1 2 3 2 3 3 4 4 3 4 5 5 5 4 4 6 9 10 10 11 10 9 9 9 9 9 9 9 8 9
3 3 4 3 3 3 3 3 3 3 2 2 2 3 2 3 3 2 3 4 4 3 4 4 5 5 5 4 5 7 9 10 11 10 10 10 10 10 9 9 9 9 9
3 3 4 3 3 3 4 4 3 3 4 3 2 2 3 2 2 2 3 3 4 4 5 4 4 4 5 4 5 7 9 10 10 10 10 10 10 10 10 10 9 9 9
3 3 3 3 3 3 3 4 4 4 3 4 3 2 3 3 3 3 4 4 3 3 4 5 4 4 4 4 4 6 8 9 9 9 9 9 10 10 10 10 9 9 9
2 2 2 2 3 3 3 4 4 4 4 4 3 3 3 3 3 3 4 4 4 4 4 4 4 4 4 4 5 7 8 8 9 8 8 8 8 8 8 9 9 8 9
1 2 2 2 2 3 3 3 3 4 4 4 4 4 4 4 3 3 3 4 5 4 3 3 3 3 3 3 4 6 7 8 8 8 8 7 8 8 8 8 8 9 9
2 2 2 2 2 3 3 2 2 3 4 4 5 4 3 4 3 3 3 3 4 4 3 4 2 3 3 3 4 5 5 7 7 7 7 6 7 7 7 8 8 8 8
2 2 2 2 2 2 3 2 2 3 4 4 4 4 4 3 3 3 3 3 3 4 5 4 3 3 3 3 4 4 4 6 7 7 7 6 6 6 7 7 8 8 8
2 2 2 2 2 2 2 2 2 3 3 3 3 3 3 3 3 3 3 3 3 4 5 3 3 2 3 3 5 4 4 7 7 7 7 6 6 6 6 7 7 7 7
2 2 2 2 2 2 2 2 2 2 2 3 3 3 3 3 3 3 3 3 3 3 5 4 2 2 3 3 3 3 3 3 4 7 8 8 7 6 6 6 6 7 7
2 1 1 1 2 2 2 2 3 2 3 3 3 3 3 3 3 3 3 3 3 3 4 5 3 2 3 3 3 3 3 3 3 6 7 6 5 5 4 4 5 5 5
1 1 1 2 2 2 2 2 3 3 3 3 3 4 4 3 4 3 3 3 3 3 3 4 4 2 2 2 2 2 3 2 3 3 4 4 4 4 4 4 4 4 3
1 1 1 2 2 2 2 2 2 3 3 3 3 4 4 4 4 4 4 3 3 3 3 4 4 3 2 2 2 2 2 2 2 2 3 3 3 4 4 3 3 3 3
1 1 1 1 1 1 2 2 2 2 2 3 3 4 4 4 6 5 4 3 3 2 3 3 3 3 2 2 2 1 2 1 2 1 1 1 1 1 2 3 3 3 3
1 1 1 1 2 2 3 4 4 2 2 3 3 3 3 4 5 6 5 4 4 4 4 3 3 4 4 2 1 1 1 1 1 0 0 2 1 2 2 1 2 3 3
1 1 1 1 2 2 4 5 6 4 2 2 3 3 3 3 4 3 4 4 4 5 5 4 4 5 4 3 3 2 2 2 2 2 1 2 1 2 2 2 3 3 3
2 1 2 2 2 2 4 5 6 4 2 2 3 2 2 2 3 2 2 2 2 3 4 4 4 4 3 3 3 3 3 2 1 1 1 1 1 2 2 2 2 2 3
3 2 2 2 2 3 5 5 6 2 2 2 3 3 2 2 2 3 2 2 2 3 3 3 3 3 4 3 3 2 2 2 1 1 0 1 1 1 2 2 2 2 3
2 3 3 2 2 2 5 6 5 1 2 2 2 3 3 3 3 3 2 2 3 3 2 2 2 3 3 2 3 3 3 3 1 1 1 1 0 1 2 1 1 1 2
Wind_Direction
210 216 210 202 200 205 203 201 203 203 211 218 218 221 230 230 219 218 228 228 234 235 235 241 250 248 237 233 230 231 238 242 251 242 240 245 249 251 258 270 275 281 280
202 212 212 209 207 210 217 208 205 208 223 225 228 226 228 233 228 223 225 229 234 239 240 243 250 257 247 240 236 233 237 241 243 245 240 245 250 256 262 269 272 278 281
204 215 204 214 211 205 220 224 211 202 232 236 244 245 237 237 235 228 230 231 232 237 241 243 247 253 253 242 240 237 238 243 241 243 245 243 246 256 264 269 272 275 276
206 213 204 214 216 202 204 212 203 205 229 236 244 255 250 244 243 235 229 230 229 234 239 244 247 249 253 246 243 240 239 241 246 241 248 247 247 254 260 265 270 274 275
206 206 211 215 207 203 206 215 220 201 220 237 246 256 254 252 248 242 233 227 226 229 233 241 244 248 251 248 243 244 244 240 244 244 249 249 248 255 262 265 266 266 273
219 203 212 220 211 203 212 206 221 225 215 227 259 278 274 263 258 240 235 235 229 227 229 232 235 243 249 249 245 246 246 244 247 246 249 251 248 254 261 263 263 263 268
220 200 212 214 215 209 210 203 212 218 229 183 226 299 295 269 259 254 237 232 235 231 227 227 228 231 239 246 247 247 246 247 251 247 249 252 250 253 256 259 262 263 266
214 207 199 213 220 217 209 202 199 220 237 205 193 228 295 300 264 259 242 231 234 240 239 237 230 227 226 226 243 246 248 249 253 251 249 253 256 255 257 259 260 264 265
218 211 209 211 217 211 211 214 206 210 229 255 215 198 208 246 297 270 243 241 235 229 236 244 237 234 228 222 227 239 245 249 253 254 252 252 257 260 258 261 259 264 268
219 216 210 208 218 223 218 222 229 217 212 233 248 237 239 232 230 282 279 255 243 236 230 235 239 238 233 227 234 241 243 247 250 254 257 255 258 262 259 261 260 261 265
219 212 210 207 218 226 227 226 229 223 223 227 231 239 252 260 246 237 269 281 273 251 241 233 228 233 239 233 232 237 244 246 249 255 261 263 261 261 260 261 259 261 262
226 213 212 213 227 227 230 233 235 223 232 236 239 240 235 233 234 234 246 262 270 269 257 245 232 229 237 239 241 246 251 246 248 252 257 263 266 267 263 263 261 266 266
244 224 223 224 236 237 234 237 232 227 228 225 231 245 247 247 242 244 244 262 275 278 272 257 240 233 238 243 246 253 251 250 248 248 250 258 263 268 272 270 267 265 269
233 222 228 231 239 246 248 241 235 238 235 226 236 242 251 250 243 240 235 240 274 278 266 258 254 236 236 242 257 259 254 261 255 248 245 250 256 263 269 272 274 273 277
250 226 231 236 235 239 240 236 239 240 238 235 235 243 250 251 241 246 246 226 230 263 268 255 247 238 240 242 252 248 252 258 263 254 244 244 250 258 264 269 274 278 281
247 234 235 238 249 252 248 241 246 247 241 245 238 235 251 261 248 238 238 243 234 239 260 253 242 247 246 259 260 249 249 260 257 258 248 245 246 249 258 265 271 278 285
226 228 235 238 251 263 254 242 249 251 250 265 271 257 261 264 259 250 240 237 236 233 252 268 255 259 242 246 265 259 253 246 248 257 256 251 246 244 253 260 267 273 277
231 231 242 251 256 267 265 255 258 265 257 263 275 273 273 272 270 263 243 237 242 242 240 257 260 249 246 238 247 254 269 269 256 261 263 257 248 247 251 258 269 271 277
230 243 243 252 259 260 270 273 264 267 263 261 266 268 270 267 268 265 260 250 247 253 246 243 255 250 253 235 249 267 265 266 270 270 260 251 250 249 251 255 258 267 277
247 254 277 268 262 268 277 277 282 283 282 281 279 274 272 266 262 258 256 243 238 246 247 245 248 252 257 240 228 252 289 284 279 284 268 268 261 255 254 258 263 266 272
314 308 296 293 297 294 280 280 282 282 280 286 287 280 275 275 275 268 257 239 230 237 247 247 252 256 252 239 241 228 255 306 307 253 283 289 266 252 248 258 264 265 272
314 316 319 305 301 305 313 316 303 281 278 275 283 291 287 286 288 289 282 272 247 234 236 247 259 252 253 247 234 216 219 288 287 262 304 300 266 250 258 245 279 278 278
340 345 316 302 298 300 320 324 324 314 295 288 287 288 291 302 305 295 298 299 286 272 254 247 253 259 250 234 215 218 218 228 255 248 216 260 254 252 260 272 275 271 288
343 341 332 335 328 326 338 341 340 333 320 303 294 285 285 297 301 301 295 296 283 276 264 252 248 257 251 229 208 211 211 227 279 261 196 227 254 262 281 266 260 258 282
348 342 337 354 344 332 343 348 346 332 332 322 316 317 307 294 315 314 304 286 289 288 288 269 271 271 263 248 220 193 197 197 250 242 179 177 254 302 285 252 260 277 295
345 344 352 352 338 324 338 347 346 340 336 328 327 324 322 325 318 303 286 272 276 283 289 299 287 291 277 256 239 217 204 205 215 236 199 168 207 4 312 285 263 258 272